| time (UTC) | temp F | wind direction | speed MPH | gust MPH | rain 1hr in | rain 24hr in | rain mn in | humidity % | barometer mb |
| 20260901160142 | 71 | 190 | 0.0 | 1.0 | 0.00 | 0.09 | 0.09 | 96 | 1013.9 |
| 20260901155144 | 70 | 190 | 0.0 | 3.0 | 0.00 | 0.09 | 0.09 | 96 | 1013.7 |
| 20260901154639 | 70 | 190 | 0.0 | 2.0 | 0.00 | 0.09 | 0.09 | 96 | 1013.8 |
| 20260901153143 | 70 | 190 | 0.0 | 1.0 | 0.00 | 0.09 | 0.09 | 96 | 1013.8 |
| 20260901152144 | 70 | 190 | 0.0 | 1.0 | 0.00 | 0.09 | 0.09 | 96 | 1014.1 |
| 20260901151143 | 70 | 190 | 0.0 | 1.0 | 0.00 | 0.09 | 0.09 | 96 | 1014.1 |
| 20260901150142 | 70 | 190 | 0.0 | 2.0 | 0.00 | 0.09 | 0.09 | 96 | 1014.2 |
| 20260901145141 | 70 | 190 | 0.0 | 0.0 | 0.00 | 0.09 | 0.09 | 96 | 1014.0 |
| 20260901144140 | 70 | 190 | 0.0 | 1.0 | 0.00 | 0.09 | 0.09 | 96 | 1014.2 |
| 20260901143139 | 70 | 190 | 0.0 | 1.0 | 0.00 | 0.09 | 0.09 | 96 | 1014.2 |
| 20260901142140 | 70 | 190 | 0.0 | 1.0 | 0.00 | 0.09 | 0.09 | 96 | 1014.4 |
| 20260901141622 | 69 | 190 | 0.0 | 0.0 | 0.00 | 0.09 | 0.09 | 96 | 1014.4 |
| 20260901140140 | 69 | 190 | 0.0 | 0.0 | 0.00 | 0.09 | 0.09 | 96 | 1014.4 |
| 20260901135140 | 69 | 190 | 0.0 | 0.0 | 0.02 | 0.09 | 0.09 | 96 | 1014.4 |
| 20260901134141 | 69 | 190 | 0.0 | 1.0 | 0.02 | 0.09 | 0.09 | 96 | 1014.4 |
| 20260901133140 | 69 | 190 | 0.0 | 0.0 | 0.03 | 0.09 | 0.09 | 96 | 1014.4 |
| 20260901132617 | 69 | 190 | 0.0 | 1.0 | 0.05 | 0.09 | 0.09 | 96 | 1014.5 |
| 20260901131135 | 69 | 190 | 0.0 | 2.0 | 0.08 | 0.09 | 0.09 | 96 | 1014.5 |
| 20260901130607 | 69 | 190 | 0.0 | 2.0 | 0.08 | 0.09 | 0.09 | 96 | 1014.5 |
| 20260901125134 | 69 | 190 | 0.0 | 1.0 | 0.06 | 0.07 | 0.07 | 96 | 1014.6 |
| 20260901124135 | 69 | 190 | 0.0 | 1.0 | 0.07 | 0.07 | 0.07 | 96 | 1014.8 |
| 20260901123133 | 69 | 190 | 0.0 | 0.0 | 0.06 | 0.06 | 0.06 | 96 | 1014.8 |
| 20260901123101 | 69 | 190 | 0.0 | 0.0 | 0.04 | 0.04 | 0.05 | 96 | 1014.7 |
| 20260901121133 | 68 | 190 | 0.0 | 1.0 | 0.01 | 0.01 | 0.01 | 96 | 1014.7 |
| 20260901120135 | 68 | 190 | 0.0 | 1.0 | 0.01 | 0.01 | 0.01 | 96 | 1014.7 |
| 20260901115609 | 68 | 190 | 0.0 | 0.0 | 0.01 | 0.01 | 0.01 | 96 | 1014.6 |
| 20260901114620 | 68 | 190 | 0.0 | 1.0 | 0.00 | 0.00 | 0.00 | 96 | 1014.4 |
| 20260901113128 | 68 | 190 | 0.0 | 1.0 | 0.00 | 0.00 | 0.00 | 96 | 1014.5 |
| 20260901112129 | 68 | 190 | 0.0 | 1.0 | 0.00 | 0.00 | 0.00 | 95 | 1014.4 |
| 20260901111130 | 68 | 190 | 0.0 | 1.0 | 0.00 | 0.00 | 0.00 | 95 | 1014.3 |
| 20260901110619 | 68 | 190 | 0.0 | 3.0 | 0.00 | 0.00 | 0.00 | 95 | 1014.2 |
| 20260901105130 | 68 | 190 | 0.0 | 1.0 | 0.00 | 0.00 | 0.00 | 95 | 1014.3 |
| 20260901105105 | 68 | 190 | 0.0 | 1.0 | 0.00 | 0.00 | 0.00 | 95 | 1014.3 |
| 20260901103125 | 68 | 190 | 0.0 | 0.0 | 0.00 | 0.00 | 0.00 | 95 | 1014.3 |
| 20260901102124 | 68 | 190 | 0.0 | 1.0 | 0.00 | 0.00 | 0.00 | 95 | 1014.2 |
| 20260901101125 | 68 | 190 | 0.0 | 1.0 | 0.00 | 0.00 | 0.00 | 95 | 1014.2 |
| 20260901100125 | 68 | 190 | 0.0 | 0.0 | 0.00 | 0.00 | 0.00 | 95 | 1014.3 |
| 20260901095125 | 68 | 190 | 0.0 | 0.0 | 0.00 | 0.00 | 0.00 | 95 | 1014.3 |
| 20260901094121 | 68 | 190 | 0.0 | 0.0 | 0.00 | 0.00 | 0.00 | 95 | 1014.4 |
| 20260901094048 | 68 | 190 | 0.0 | 0.0 | 0.00 | 0.00 | 0.00 | 95 | 1014.3 |
| 20260901092120 | 68 | 190 | 0.0 | 0.0 | 0.00 | 0.00 | 0.00 | 95 | 1014.4 |
| 20260901091120 | 68 | 190 | 0.0 | 0.0 | 0.00 | 0.00 | 0.00 | 95 | 1014.5 |
| 20260901090121 | 68 | 190 | 0.0 | 0.0 | 0.00 | 0.00 | 0.00 | 95 | 1014.5 |
| 20260901085119 | 68 | 190 | 0.0 | 0.0 | 0.00 | 0.00 | 0.00 | 95 | 1014.7 |
| 20260901084119 | 68 | 190 | 0.0 | 0.0 | 0.00 | 0.00 | 0.00 | 95 | 1014.8 |
| 20260901083117 | 68 | 190 | 0.0 | 0.0 | 0.00 | 0.00 | 0.00 | 95 | 1014.8 |
| 20260901082117 | 68 | 190 | 0.0 | 0.0 | 0.00 | 0.00 | 0.00 | 94 | 1014.8 |
| 20260901081117 | 68 | 190 | 0.0 | 0.0 | 0.00 | 0.00 | 0.00 | 94 | 1014.9 |
| 20260901080119 | 68 | 190 | 0.0 | 0.0 | 0.00 | 0.00 | 0.00 | 94 | 1015.0 |
| 20260901075120 | 68 | 190 | 0.0 | 0.0 | 0.00 | 0.00 | 0.00 | 94 | 1015.1 |
| 20260901074113 | 68 | 190 | 0.0 | 0.0 | 0.00 | 0.00 | 0.00 | 94 | 1015.2 |
| 20260901073551 | 68 | 190 | 0.0 | 0.0 | 0.00 | 0.00 | 0.00 | 94 | 1015.2 |
| 20260901072112 | 68 | 190 | 0.0 | 0.0 | 0.00 | 0.00 | 0.00 | 94 | 1015.3 |
| 20260901071112 | 68 | 190 | 0.0 | 0.0 | 0.00 | 0.00 | 0.00 | 94 | 1015.4 |
| 20260901070112 | 68 | 190 | 0.0 | 0.0 | 0.00 | 0.00 | 0.00 | 94 | 1015.5 |
| 20260901065111 | 68 | 190 | 0.0 | 0.0 | 0.00 | 0.00 | 0.00 | 94 | 1015.4 |
| 20260901064113 | 68 | 190 | 0.0 | 0.0 | 0.00 | 0.00 | 0.00 | 94 | 1015.4 |
| 20260901063555 | 68 | 190 | 0.0 | 0.0 | 0.00 | 0.00 | 0.00 | 94 | 1015.5 |
| 20260901062555 | 68 | 190 | 0.0 | 0.0 | 0.00 | 0.00 | 0.00 | 94 | 1015.6 |
| 20260901061552 | 68 | 190 | 0.0 | 0.0 | 0.00 | 0.00 | 0.00 | 93 | 1015.6 |
| 20260901060107 | 68 | 190 | 0.0 | 0.0 | 0.00 | 0.00 | 0.00 | 93 | 1015.7 |
| 20260901055106 | 68 | 190 | 0.0 | 0.0 | 0.00 | 0.00 | 0.00 | 93 | 1015.7 |
| 20260901054105 | 68 | 190 | 0.0 | 0.0 | 0.00 | 0.00 | 0.00 | 92 | 1016.0 |
| 20260901053107 | 68 | 190 | 0.0 | 0.0 | 0.00 | 0.00 | 0.00 | 92 | 1016.0 |
| 20260901052105 | 68 | 190 | 0.0 | 0.0 | 0.00 | 0.00 | 0.00 | 92 | 1016.0 |
| 20260901051107 | 69 | 190 | 0.0 | 0.0 | 0.00 | 0.00 | 0.00 | 92 | 1016.1 |
| 20260901050107 | 69 | 190 | 0.0 | 0.0 | 0.00 | 0.00 | 0.00 | 91 | 1016.2 |
| 20260901045106 | 69 | 190 | 0.0 | 0.0 | 0.00 | 0.00 | 0.00 | 91 | 1016.3 |
| 20260901044101 | 69 | 190 | 0.0 | 0.0 | 0.00 | 0.00 | 0.00 | 91 | 1016.3 |
| 20260901043100 | 69 | 190 | 0.0 | 0.0 | 0.00 | 0.00 | 0.00 | 90 | 1016.3 |
| 20260901042101 | 69 | 190 | 0.0 | 0.0 | 0.00 | 0.00 | 0.00 | 89 | 1016.4 |
| 20260901041100 | 69 | 190 | 0.0 | 0.0 | 0.00 | 0.00 | 0.00 | 89 | 1016.3 |
| 20260901040059 | 69 | 190 | 0.0 | 0.0 | 0.00 | 0.00 | 0.00 | 89 | 1016.5 |
| 20260901035539 | 69 | 190 | 0.0 | 0.0 | 0.00 | 0.00 | 0.00 | 89 | 1016.4 |
| 20260901034101 | 69 | 190 | 0.0 | 0.0 | 0.00 | 0.00 | 0.00 | 89 | 1016.4 |
| 20260901033057 | 69 | 190 | 0.0 | 0.0 | 0.00 | 0.00 | 0.00 | 88 | 1016.6 |
| 20260901032058 | 69 | 190 | 0.0 | 0.0 | 0.00 | 0.00 | 0.00 | 87 | 1016.5 |
| 20260901031053 | 69 | 190 | 0.0 | 0.0 | 0.00 | 0.00 | 0.00 | 87 | 1016.5 |
| 20260901030054 | 69 | 190 | 0.0 | 0.0 | 0.00 | 0.00 | 0.00 | 87 | 1016.5 |
| 20260901025053 | 69 | 190 | 0.0 | 0.0 | 0.00 | 0.00 | 0.00 | 86 | 1016.6 |
| 20260901024054 | 69 | 190 | 0.0 | 0.0 | 0.00 | 0.00 | 0.00 | 87 | 1016.7 |
| 20260901023053 | 69 | 190 | 0.0 | 0.0 | 0.00 | 0.00 | 0.00 | 86 | 1016.8 |
| 20260901022538 | 69 | 190 | 0.0 | 1.0 | 0.00 | 0.00 | 0.00 | 85 | 1016.7 |
| 20260901021054 | 70 | 190 | 0.0 | 0.0 | 0.00 | 0.00 | 0.00 | 85 | 1016.5 |
| 20260901020053 | 70 | 190 | 0.0 | 0.0 | 0.00 | 0.00 | 0.00 | 84 | 1016.6 |
| 20260901015526 | 70 | 190 | 0.0 | 0.0 | 0.00 | 0.00 | 0.00 | 84 | 1016.6 |
| 20260901014052 | 70 | 190 | 0.0 | 0.0 | 0.00 | 0.00 | 0.00 | 84 | 1016.5 |
| 20260901013053 | 70 | 190 | 0.0 | 0.0 | 0.00 | 0.00 | 0.00 | 83 | 1016.7 |
| 20260901012051 | 70 | 190 | 0.0 | 0.0 | 0.00 | 0.00 | 0.00 | 83 | 1016.8 |
| 20260901011052 | 70 | 190 | 0.0 | 0.0 | 0.00 | 0.00 | 0.00 | 82 | 1017.0 |
| 20260901010052 | 71 | 190 | 0.0 | 0.0 | 0.00 | 0.00 | 0.00 | 82 | 1016.9 |
| 20260901005051 | 71 | 190 | 0.0 | 1.0 | 0.00 | 0.00 | 0.00 | 82 | 1016.8 |
| 20260901004051 | 71 | 190 | 0.0 | 1.0 | 0.00 | 0.00 | 0.00 | 82 | 1016.8 |
| 20260901003052 | 71 | 190 | 0.0 | 2.0 | 0.00 | 0.00 | 0.00 | 82 | 1016.8 |
| 20260901002049 | 71 | 190 | 0.0 | 2.0 | 0.00 | 0.00 | 0.00 | 82 | 1016.7 |
| 20260901001050 | 71 | 190 | 0.0 | 1.0 | 0.00 | 0.00 | 0.00 | 83 | 1016.6 |
| 20260901000049 | 71 | 190 | 0.0 | 2.0 | 0.00 | 0.00 | 0.00 | 83 | 1016.6 |
| 20260831235049 | 71 | 190 | 0.0 | 1.0 | 0.00 | 0.00 | 0.00 | 82 | 1016.7 |
| 20260831234050 | 71 | 190 | 0.0 | 3.0 | 0.00 | 0.00 | 0.00 | 82 | 1016.6 |
| 20260831233050 | 71 | 190 | 0.0 | 1.0 | 0.00 | 0.00 | 0.00 | 80 | 1016.6 |
| 20260831232051 | 72 | 190 | 0.0 | 1.0 | 0.00 | 0.00 | 0.00 | 78 | 1016.8 |
| 20260831231051 | 72 | 190 | 0.0 | 1.0 | 0.00 | 0.00 | 0.00 | 78 | 1016.9 |
| 20260831230047 | 72 | 190 | 0.0 | 0.0 | 0.00 | 0.00 | 0.00 | 76 | 1017.0 |
| 20260831225048 | 72 | 190 | 0.0 | 0.0 | 0.00 | 0.00 | 0.00 | 75 | 1017.0 |
| 20260831224047 | 73 | 190 | 0.0 | 0.0 | 0.00 | 0.00 | 0.00 | 76 | 1017.1 |
| 20260831223047 | 73 | 190 | 0.0 | 0.0 | 0.00 | 0.00 | 0.00 | 74 | 1017.0 |
| 20260831222046 | 73 | 190 | 0.0 | 0.0 | 0.00 | 0.00 | 0.00 | 74 | 1017.0 |
| 20260831221049 | 73 | 190 | 0.0 | 2.0 | 0.00 | 0.00 | 0.00 | 74 | 1017.2 |
| 20260831220048 | 73 | 190 | 0.0 | 4.0 | 0.00 | 0.00 | 0.00 | 72 | 1017.1 |
| 20260831215048 | 74 | 190 | 0.0 | 3.0 | 0.00 | 0.00 | 0.00 | 71 | 1017.0 |
| 20260831214048 | 74 | 190 | 0.0 | 1.0 | 0.00 | 0.00 | 0.00 | 73 | 1017.1 |
| 20260831213044 | 74 | 190 | 0.0 | 1.0 | 0.00 | 0.00 | 0.00 | 75 | 1017.0 |
| 20260831212047 | 75 | 190 | 0.0 | 0.0 | 0.00 | 0.00 | 0.00 | 76 | 1016.9 |
| 20260831211045 | 75 | 190 | 0.0 | 3.0 | 0.00 | 0.00 | 0.00 | 76 | 1016.8 |
| 20260831210050 | 75 | 190 | 0.0 | 3.0 | 0.00 | 0.00 | 0.00 | 73 | 1016.9 |
| 20260831205046 | 76 | 190 | 0.0 | 3.0 | 0.00 | 0.00 | 0.00 | 73 | 1016.9 |
| 20260831204046 | 76 | 190 | 1.0 | 4.0 | 0.00 | 0.00 | 0.00 | 72 | 1016.9 |
| 20260831203046 | 76 | 190 | 1.0 | 4.0 | 0.00 | 0.00 | 0.00 | 72 | 1016.8 |
| 20260831202046 | 77 | 190 | 0.0 | 2.0 | 0.00 | 0.00 | 0.00 | 73 | 1016.8 |
| 20260831201520 | 77 | 190 | 0.0 | 5.0 | 0.00 | 0.00 | 0.00 | 71 | 1017.0 |
| 20260831200043 | 77 | 190 | 0.0 | 4.0 | 0.00 | 0.00 | 0.00 | 70 | 1017.0 |
| 20260831195527 | 78 | 190 | 2.0 | 5.0 | 0.00 | 0.00 | 0.00 | 68 | 1016.9 |
| 20260831194039 | 78 | 190 | 1.0 | 7.0 | 0.00 | 0.00 | 0.00 | 67 | 1017.1 |
| 20260831193040 | 78 | 194 | 1.0 | 6.0 | 0.00 | 0.00 | 0.00 | 70 | 1017.1 |
| 20260831192038 | 77 | 193 | 1.0 | 5.0 | 0.00 | 0.00 | 0.00 | 70 | 1017.3 |
| 20260831191039 | 76 | 214 | 1.0 | 5.0 | 0.00 | 0.00 | 0.00 | 70 | 1017.4 |
| 20260831190040 | 76 | 207 | 0.0 | 2.0 | 0.00 | 0.00 | 0.00 | 70 | 1017.6 |
| 20260831185039 | 77 | 207 | 0.0 | 1.0 | 0.00 | 0.00 | 0.00 | 72 | 1017.7 |
| 20260831184039 | 77 | 207 | 0.0 | 1.0 | 0.00 | 0.00 | 0.00 | 71 | 1017.7 |
| 20260831183038 | 77 | 207 | 0.0 | 1.0 | 0.00 | 0.00 | 0.00 | 68 | 1017.5 |
| 20260831182040 | 77 | 207 | 0.0 | 3.0 | 0.00 | 0.00 | 0.00 | 69 | 1017.6 |
| 20260831181511 | 77 | 46 | 0.0 | 3.0 | 0.00 | 0.00 | 0.00 | 64 | 1017.7 |
| 20260831180042 | 77 | 58 | 0.0 | 1.0 | 0.00 | 0.00 | 0.00 | 66 | 1017.8 |
| 20260831175040 | 77 | 58 | 0.0 | 2.0 | 0.00 | 0.00 | 0.00 | 64 | 1018.1 |
| 20260831174039 | 77 | 58 | 0.0 | 3.0 | 0.00 | 0.00 | 0.00 | 66 | 1018.2 |
| 20260831173034 | 77 | 72 | 1.0 | 4.0 | 0.00 | 0.00 | 0.00 | 68 | 1018.1 |
| 20260831172034 | 76 | 43 | 0.0 | 1.0 | 0.00 | 0.00 | 0.00 | 67 | 1018.2 |
| 20260831171034 | 76 | 42 | 1.0 | 3.0 | 0.00 | 0.00 | 0.00 | 68 | 1018.3 |
| 20260831170035 | 76 | 45 | 1.0 | 3.0 | 0.00 | 0.00 | 0.00 | 66 | 1018.2 |
| 20260831165033 | 75 | 44 | 1.0 | 3.0 | 0.00 | 0.00 | 0.00 | 67 | 1018.4 |
| 20260831164034 | 75 | 171 | 0.0 | 3.0 | 0.00 | 0.00 | 0.00 | 70 | 1018.7 |
| 20260831163032 | 74 | 171 | 1.0 | 4.0 | 0.00 | 0.00 | 0.00 | 70 | 1018.7 |
| 20260831162034 | 74 | 171 | 1.0 | 4.0 | 0.00 | 0.00 | 0.00 | 73 | 1018.8 |